Regional Weather Roundup
Issued by NWS Lake Charles, LA

Home | Current Version | Previous Version | Text Only | Print | Product List | Glossary On
Versions: 1 2 3 4 5 6 7 8 9 10 11 12 13 14 15 16 17 18 19 20 21 22 23 24 25 26 27 28 29 30 31 32 33 34 35 36 37 38 39 40 41 42 43 44 45 46 47 48 49 50
000
ASUS44 KLCH 061210
RWRLCH
RWRLCH
REGIONAL WEATHER ROUNDUP
NATIONAL WEATHER SERVICE LAKE CHARLES LA
700 AM CDT WED MAY 06 2015

Note: "fair" indicates few or no clouds below 12,000 feet with no
significant weather and/or obstructions to visibility.


ACROSS SOUTHEAST TEXAS

CITY           SKY/WX    TMP DP  RH WIND       PRES   REMARKS
BEAUMONT       CLOUDY    73  68  84 E10       30.00R
BEAUMONT CITY  CLOUDY    71  67  89 CALM      30.02R
ORANGE         CLOUDY    71  66  84 E3        30.03R
JASPER         NOT AVBL
$$

ACROSS CENTRAL LOUISIANA

CITY           SKY/WX    TMP DP  RH WIND       PRES   REMARKS
LEESVILLE      CLOUDY    66  63  90 E5        30.04R
FULLERTON        N/A     67  62  84 CALM      30.03R
ALEXANDRIA INT PTCLDY    64  61  90 E5        30.05R
ESLER FIELD    PTCLDY    62  59  90 CALM      30.07R
DERIDDER       PTSUNNY   66  64  91 E5        30.05S
OAKDALE        PTSUNNY   61  60  96 CALM      30.06R
OPELOUSAS        N/A     63  62  96 E5        30.06R FOG
$$

ACROSS SOUTHWEST AND SOUTH CENTRAL LOUISIANA

CITY           SKY/WX    TMP DP  RH WIND       PRES   REMARKS
SULPHUR        CLOUDY    69  67  94 E7        30.04R
LAKE CHARLES   MOCLDY    67  65  93 E7        30.02R
CHENNAULT INT  CLEAR     64  64 100 E5        30.03R
CAMERON PHI    PTSUNNY   75  68  78 SE15      30.04R
DEQUINCY         N/A     65  65 100 CALM      30.04R
JENNINGS         N/A     65  64  96 E8        30.03S
LAFAYETTE      CLEAR     65  63  93 NE5       30.06R
NEW IBERIA       N/A    N/A N/A N/A MISG      30.06R
ABBEVILLE        N/A     64  64  97 E3        30.05R
PATTERSON      CLEAR    N/A N/A N/A E5        30.06R
SALT POINT       N/A     67  66  97 CALM      30.03R
$$

SELECTED SITES ACROSS THE REGION

CITY           SKY/WX    TMP DP  RH WIND       PRES   REMARKS
HOUSTON BUSH   CLOUDY    73  69  87 SE8       29.97R
HOUSTON HOBBY  MOCLDY    74  69  85 SE10      29.97R
GALVESTON      CLOUDY    74  71  91 SE15      29.97R
COLLEGE STAT   TSTM      67  64  90 SE17G33   29.97R FOG
CONROE         LGT RAIN  70  67  90 E8        29.99R
HUNTSVILLE     CLOUDY    71  67  87 VRB5      29.98S
LUFKIN         CLOUDY    70  65  84 E9        30.01R
SHREVEPORT     MOCLDY    64  62  93 SE5       30.05R
MONROE         CLEAR     62  60  93 E5        30.09S
NATCHEZ MS     CLEAR     61  57  88 CALM      30.11R
BATON ROUGE    CLEAR     63  61  93 MISG      30.09R
N.O. INTL ARPT PTCLDY    70  63  78 E3        30.08R
SLIDELL        CLEAR     61  60  97 CALM      30.08R
$$

MARINE REPORTS

STATION/POSITION TIME  TEMP    WIND        PRES    VSBY  WAVE
                       AIR SEA DIR/SP/G                  HT/PER
                 (UTC) (F)     (DEG/KT/KT) (MB)    (MI)  (FT/S)
BUOY 30 S HIGH I 1150   75 75  120/ 16/ 19 1014.6R         5/ 7
SEA RIM ST PARK  1200   74     130/ 13/ 17 1016.5R
PORT ARTHUR      1100      73  130/  9/ 14 1015.5R
SABINE PASS N    1100   74 75  140/ 17/ 21 1015.8R
TEXAS POINT      NOT AVBL
CALCASIEU PASS   1100   74 76  150/ 19/ 22   N/A
LK CHARLES BEACH 1100   67 71              1016.6R
MARSH ISLAND     1100   74     150/ 16/ 18   N/A           0
FRESH WATER LOCK 1100   73 76  110/  8/ 14 1016.2R
AMERADA PASS     1100   68 69   70/  3/  5 1016.7R
$$



USA.gov is the U.S. government's official web portal to all federal, state and local government web resources and services.